Location: Goettingen
(51.5300°N, 9.9433°E)
Time: 00:37:06
(UTC+02:00)

ISS - Pass Details

Date: 16 September 2018
Orbit: 403 x 408 km, 51.6° (Epoch: 23 September)

Event Time Altitude Azimuth Distance (km) Brightness Sun altitude
Exits shadow 04:10:54 13° 116° (ESE) 1,306 -1.0 -24.3°
Drops below altitude 10° 04:11:17 10° 115° (ESE) 1,461 -0.7 -24.2°
Sets 04:13:22 0° 113° (ESE) 2,318 0.4 -24.0°
